Flag for Canada Weather past 2 weeks in Kelowna, British Columbia, Canada

Now
18 °F

Clear.


Feels Like: 12 °F
Forecast: 15 / 46 °F
Wind: 3 mph from Northeast

Location: Kelowna Airport

Current Time: Mar 3, 2015 at 11:15:46 PM

Latest Report: Mar 3, 2015 at 10:00 PM


Visibility: 9 mi

Pressure: 30.32 "Hg

Humidity: 73%

Dew point: 10 °F

Location of KelownaLocation

Historic Weather in Kelowna — Graph

°F

Kelowna temperature yesterday

Maximum temperature yesterday: 45 °F (at 1:00 PM)
Minimum temperature yesterday: 25 °F (at 8:00 PM)
Average temperature yesterday: 34 °F

Past Weeks' High & Low Weather Summary

 TemperatureHumidityPressure
High50 °F (Feb 20, 3:00 PM)100% (Feb 16, 10:00 PM)30.58 "Hg (Feb 16, 10:00 PM)
Low12 °F (Mar 3, 6:00 AM)17% (Mar 3, 3:00 PM)29.93 "Hg (Feb 27, 3:49 AM)
Average33 °F72%30.28 "Hg
* Reported Feb 16 10:00 PM — Mar 3 10:00 PM, Kelowna, Weather by CustomWeather, © 2015

Note: Actual official high and low records may vary slightly from our data, if they occured in-between our weather recording intervals... More about our weather records

Advertising

Kelowna weather history for previous 24 hours

 ConditionsComfort  
Time TempWeatherWind HumidityBarometerVisibility
10:00 PM
Tue, Mar 3
18 °FClear.3 mph73%30.32 "Hg9 mi
9:00 PM19 °FClear.5 mph68%30.31 "Hg9 mi
8:00 PM21 °FPassing clouds.5 mph63%30.30 "Hg9 mi
7:00 PM25 °FClear.2 mph50%30.30 "Hg9 mi
6:00 PM27 °FClear.5 mph46%30.29 "Hg9 mi
5:00 PM36 °FSunny.7 mph25%30.27 "Hg9 mi
4:00 PM39 °FSunny.9 mph24%30.27 "Hg9 mi
3:00 PM39 °FSunny.2 mph17%30.27 "Hg9 mi
2:00 PM37 °FSunny.6 mph23%30.29 "Hg9 mi
1:00 PM36 °FSunny.5 mph23%30.32 "Hg9 mi
12:00 PM36 °FSunny.7 mph25%30.33 "Hg9 mi
11:00 AM34 °FSunny.3 mph27%30.34 "Hg9 mi
10:00 AM30 °FSunny.2 mph37%30.36 "Hg9 mi
9:00 AM27 °FSunny.No wind46%30.37 "Hg9 mi
8:00 AM21 °FSunny.2 mph58%30.37 "Hg9 mi
7:00 AM12 °FSunny.3 mph79%30.36 "Hg9 mi
6:00 AM12 °FClear.No wind85%30.36 "Hg9 mi
5:00 AM18 °FClear.No wind73%30.35 "Hg9 mi
4:00 AM14 °FClear.No wind73%30.35 "Hg9 mi
3:00 AM18 °FClear.No wind73%30.34 "Hg9 mi
2:00 AM18 °FClear.No wind73%30.33 "Hg9 mi
1:00 AM19 °FClear.2 mph68%30.31 "Hg9 mi
12:00 AM23 °FClear.3 mph63%30.28 "Hg9 mi
11:00 PM
Mon, Mar 2
28 °FClear.No wind51%30.26 "Hg9 mi
Weather by CustomWeather, © 2015

See weather overviewHow to use our weather pages